QPF
0.01 0.01 0.02 0.03 0.06 0.06 0.07 0.07 0.06 0.06 0.07 0.07 0.09 0.10 0.09 0.09 0.07 0.06 0.06 0.07 0.09 0.09 0.07 0.06 0.05 0.04 0.03 0.02 0.01 0.02 0.02 0.03 0.02 0.02 0.03 0.03 0.03 0.04 0.03 0.02 0.02 0.02 0.02
0.01 0.02 0.02 0.03 0.04 0.05 0.05 0.04 0.04 0.04 0.06 0.08 0.08 0.08 0.08 0.09 0.08 0.05 0.05 0.06 0.09 0.12 0.13 0.12 0.10 0.08 0.06 0.04 0.03 0.02 0.03 0.02 0.02 0.02 0.02 0.02 0.02 0.03 0.03 0.02 0.02 0.02 0.02
0.01 0.02 0.03 0.02 0.03 0.04 0.04 0.03 0.03 0.02 0.03 0.07 0.09 0.08 0.07 0.08 0.09 0.07 0.04 0.04 0.05 0.09 0.12 0.13 0.12 0.10 0.08 0.07 0.05 0.03 0.02 0.03 0.02 0.03 0.03 0.03 0.02 0.02 0.02 0.02 0.02 0.02 0.02
0.02 0.02 0.02 0.02 0.02 0.02 0.02 0.02 0.03 0.03 0.03 0.04 0.07 0.10 0.09 0.07 0.07 0.07 0.07 0.04 0.03 0.05 0.08 0.10 0.12 0.11 0.10 0.09 0.07 0.05 0.03 0.03 0.03 0.02 0.02 0.02 0.02 0.02 0.02 0.02 0.03 0.03 0.03
0.02 0.02 0.01 0.01 0.01 0.01 0.02 0.02 0.02 0.03 0.03 0.03 0.04 0.06 0.10 0.10 0.07 0.06 0.07 0.08 0.05 0.03 0.03 0.04 0.06 0.08 0.07 0.07 0.07 0.08 0.06 0.05 0.03 0.02 0.02 0.01 0.01 0.01 0.01 0.02 0.03 0.02 0.02
0.01 0.01 0.01 0.01 0.01 0.01 0.01 0.01 0.02 0.02 0.02 0.03 0.03 0.03 0.05 0.08 0.09 0.08 0.07 0.07 0.07 0.07 0.05 0.03 0.04 0.04 0.05 0.04 0.04 0.05 0.06 0.04 0.03 0.02 0.02 0.02 0.02 0.02 0.01 0.01 0.02 0.02 0.03
0.01 0.01 0.01 0.01 0.01 0.02 0.02 0.02 0.02 0.02 0.02 0.02 0.02 0.02 0.02 0.04 0.06 0.07 0.06 0.05 0.05 0.05 0.06 0.05 0.05 0.05 0.05 0.04 0.04 0.04 0.04 0.04 0.02 0.02 0.02 0.02 0.02 0.02 0.02 0.02 0.01 0.02 0.03
0.02 0.01 0.02 0.01 0.01 0.02 0.02 0.02 0.02 0.02 0.02 0.02 0.02 0.02 0.02 0.03 0.04 0.05 0.05 0.04 0.04 0.03 0.03 0.03 0.04 0.04 0.05 0.04 0.04 0.04 0.04 0.03 0.02 0.02 0.02 0.02 0.02 0.02 0.02 0.02 0.02 0.02 0.02
0.02 0.02 0.02 0.02 0.01 0.01 0.01 0.02 0.01 0.02 0.02 0.02 0.03 0.03 0.02 0.02 0.03 0.04 0.04 0.04 0.04 0.04 0.04 0.03 0.03 0.03 0.03 0.04 0.04 0.04 0.03 0.02 0.02 0.01 0.01 0.01 0.02 0.01 0.01 0.02 0.02 0.02 0.02
0.02 0.02 0.02 0.02 0.02 0.02 0.01 0.01 0.01 0.02 0.02 0.02 0.02 0.03 0.04 0.03 0.03 0.03 0.04 0.04 0.04 0.03 0.04 0.04 0.03 0.03 0.03 0.03 0.03 0.03 0.02 0.01 0.01 0.01 0.01 0.01 0.01 0.01 0.01 0.01 0.01 0.01 0.01
0.02 0.02 0.02 0.02 0.02 0.02 0.01 0.01 0.01 0.02 0.02 0.02 0.02 0.03 0.03 0.04 0.04 0.03 0.03 0.03 0.04 0.03 0.03 0.03 0.03 0.02 0.02 0.02 0.02 0.02 0.01 0.01 0.01 0.00 0.00 0.00 0.00 0.00 0.00 0.00 0.00 0.00 0.01
0.01 0.01 0.01 0.02 0.02 0.02 0.01 0.01 0.01 0.02 0.02 0.02 0.03 0.03 0.03 0.03 0.04 0.04 0.04 0.03 0.03 0.03 0.03 0.02 0.02 0.02 0.02 0.02 0.02 0.01 0.01 0.01 0.00 0.00 0.00 0.00 0.00 0.00 0.00 0.00 0.00 0.00 0.00
0.01 0.01 0.01 0.02 0.01 0.02 0.01 0.01 0.01 0.01 0.02 0.02 0.03 0.03 0.03 0.03 0.03 0.03 0.03 0.03 0.03 0.03 0.03 0.03 0.02 0.02 0.02 0.02 0.01 0.01 0.01 0.00 0.00 0.00 0.00 0.00 0.00 0.00 0.00 0.00 0.00 0.00 0.00
0.01 0.01 0.01 0.02 0.01 0.01 0.02 0.02 0.02 0.02 0.02 0.02 0.02 0.03 0.03 0.03 0.03 0.03 0.03 0.03 0.03 0.03 0.02 0.02 0.03 0.03 0.02 0.02 0.01 0.01 0.00 0.00 0.00 0.00 0.00 0.00 0.00 0.00 0.00 0.00 0.00 0.00 0.00
0.01 0.01 0.01 0.02 0.02 0.02 0.02 0.02 0.02 0.02 0.02 0.02 0.02 0.02 0.03 0.03 0.04 0.03 0.03 0.03 0.03 0.03 0.03 0.02 0.02 0.02 0.02 0.02 0.01 0.01 0.01 0.01 0.00 0.00 0.00 0.00 0.00 0.00 0.00 0.00 0.00 0.01 0.01
0.01 0.01 0.01 0.02 0.02 0.02 0.02 0.02 0.02 0.02 0.02 0.02 0.02 0.02 0.02 0.03 0.03 0.04 0.04 0.04 0.03 0.03 0.04 0.04 0.03 0.03 0.02 0.02 0.02 0.01 0.01 0.01 0.01 0.01 0.00 0.00 0.00 0.00 0.00 0.00 0.00 0.01 0.01
0.01 0.01 0.01 0.02 0.02 0.02 0.02 0.02 0.02 0.02 0.02 0.02 0.02 0.02 0.02 0.03 0.03 0.03 0.03 0.04 0.04 0.04 0.04 0.04 0.04 0.03 0.03 0.03 0.02 0.02 0.02 0.01 0.01 0.01 0.00 0.00 0.00 0.00 0.00 0.00 0.00 0.00 0.01
0.02 0.02 0.02 0.02 0.02 0.02 0.02 0.02 0.02 0.02 0.02 0.02 0.02 0.02 0.02 0.03 0.03 0.02 0.03 0.03 0.03 0.03 0.04 0.04 0.03 0.03 0.03 0.03 0.02 0.02 0.02 0.01 0.01 0.01 0.01 0.00 0.00 0.00 0.00 0.00 0.00 0.00 0.00
0.03 0.03 0.03 0.03 0.03 0.02 0.02 0.02 0.02 0.02 0.02 0.02 0.02 0.02 0.03 0.03 0.03 0.02 0.02 0.02 0.02 0.03 0.03 0.03 0.03 0.03 0.02 0.02 0.02 0.02 0.01 0.01 0.01 0.01 0.01 0.01 0.00 0.00 0.01 0.01 0.00 0.00 0.00
0.02 0.03 0.03 0.04 0.03 0.03 0.02 0.02 0.03 0.03 0.02 0.02 0.02 0.02 0.03 0.03 0.03 0.02 0.02 0.02 0.02 0.02 0.02 0.02 0.02 0.02 0.02 0.02 0.02 0.02 0.01 0.01 0.01 0.01 0.01 0.00 0.01 0.01 0.01 0.01 0.01 0.01 0.00
0.03 0.03 0.04 0.04 0.04 0.03 0.03 0.03 0.03 0.04 0.03 0.03 0.02 0.02 0.02 0.02 0.03 0.03 0.02 0.02 0.02 0.02 0.02 0.02 0.02 0.02 0.01 0.02 0.02 0.01 0.01 0.01 0.01 0.01 0.01 0.01 0.01 0.01 0.01 0.01 0.02 0.01 0.01
0.02 0.03 0.04 0.05 0.05 0.05 0.03 0.04 0.04 0.04 0.04 0.03 0.03 0.03 0.03 0.03 0.03 0.03 0.03 0.02 0.02 0.03 0.02 0.02 0.02 0.02 0.02 0.02 0.02 0.02 0.01 0.01 0.01 0.01 0.01 0.01 0.01 0.01 0.02 0.01 0.01 0.02 0.02
0.02 0.03 0.03 0.05 0.05 0.05 0.04 0.04 0.04 0.03 0.03 0.03 0.03 0.03 0.03 0.03 0.03 0.03 0.03 0.03 0.03 0.03 0.03 0.02 0.02 0.02 0.02 0.02 0.02 0.02 0.01 0.01 0.01 0.01 0.01 0.01 0.01 0.02 0.02 0.01 0.02 0.02 0.01
0.02 0.03 0.03 0.04 0.05 0.05 0.05 0.04 0.03 0.02 0.02 0.02 0.02 0.02 0.03 0.03 0.03 0.03 0.03 0.03 0.03 0.03 0.02 0.02 0.02 0.02 0.02 0.02 0.02 0.02 0.01 0.01 0.01 0.02 0.02 0.01 0.01 0.01 0.01 0.01 0.01 0.01 0.01
0.03 0.03 0.03 0.04 0.04 0.04 0.04 0.04 0.04 0.03 0.02 0.02 0.02 0.02 0.02 0.02 0.03 0.03 0.03 0.02 0.02 0.02 0.02 0.02 0.02 0.02 0.02 0.02 0.02 0.02 0.02 0.02 0.02 0.02 0.02 0.01 0.01 0.01 0.01 0.01 0.01 0.01 0.01
0.03 0.03 0.03 0.03 0.04 0.04 0.04 0.04 0.04 0.03 0.02 0.02 0.02 0.02 0.02 0.02 0.02 0.02 0.02 0.02 0.02 0.02 0.02 0.02 0.02 0.02 0.02 0.02 0.02 0.02 0.02 0.02 0.02 0.02 0.02 0.01 0.01 0.01 0.01 0.01 0.01 0.01 0.01
MSLP
1012.00 1012.24 1012.37 1012.44 1012.50 1012.59 1012.79 1013.12 1013.61 1014.27 1015.05 1015.94 1016.88 1017.83 1018.74 1019.59 1020.33 1020.98 1021.53 1022.00 1022.41 1022.80 1023.20 1023.62 1024.10 1024.63 1025.23 1025.89 1026.57 1027.27 1027.95 1028.59 1029.17 1029.68 1030.11 1030.46 1030.73 1030.93 1031.07 1031.14 1031.16 1031.14 1031.10
1012.49 1012.64 1012.67 1012.61 1012.53 1012.50 1012.58 1012.81 1013.24 1013.85 1014.62 1015.52 1016.50 1017.50 1018.47 1019.39 1020.21 1020.93 1021.55 1022.08 1022.54 1022.96 1023.37 1023.80 1024.28 1024.81 1025.40 1026.04 1026.72 1027.42 1028.11 1028.77 1029.37 1029.91 1030.37 1030.75 1031.07 1031.31 1031.49 1031.62 1031.69 1031.73 1031.73
1013.20 1013.24 1013.14 1012.95 1012.74 1012.58 1012.55 1012.68 1013.02 1013.57 1014.29 1015.17 1016.14 1017.15 1018.16 1019.12 1020.01 1020.79 1021.48 1022.08 1022.59 1023.05 1023.49 1023.92 1024.38 1024.89 1025.45 1026.06 1026.72 1027.41 1028.10 1028.77 1029.40 1029.97 1030.48 1030.91 1031.27 1031.57 1031.81 1031.99 1032.12 1032.20 1032.25
1014.11 1014.05 1013.82 1013.50 1013.16 1012.87 1012.72 1012.75 1012.99 1013.44 1014.08 1014.88 1015.79 1016.77 1017.77 1018.75 1019.67 1020.52 1021.28 1021.95 1022.53 1023.04 1023.51 1023.95 1024.39 1024.87 1025.38 1025.95 1026.58 1027.24 1027.93 1028.62 1029.28 1029.90 1030.46 1030.95 1031.37 1031.72 1032.00 1032.23 1032.39 1032.51 1032.59
1015.17 1014.99 1014.64 1014.20 1013.74 1013.35 1013.08 1012.99 1013.11 1013.44 1013.95 1014.63 1015.43 1016.33 1017.27 1018.23 1019.17 1020.07 1020.90 1021.65 1022.31 1022.90 1023.41 1023.87 1024.30 1024.75 1025.22 1025.75 1026.33 1026.97 1027.65 1028.35 1029.05 1029.72 1030.33 1030.88 1031.35 1031.74 1032.06 1032.31 1032.49 1032.62 1032.70
1016.27 1015.99 1015.54 1015.00 1014.44 1013.94 1013.57 1013.36 1013.35 1013.52 1013.87 1014.39 1015.04 1015.80 1016.65 1017.56 1018.49 1019.43 1020.33 1021.17 1021.93 1022.60 1023.18 1023.67 1024.12 1024.54 1024.98 1025.46 1026.00 1026.61 1027.28 1027.99 1028.72 1029.43 1030.09 1030.69 1031.20 1031.62 1031.96 1032.21 1032.39 1032.51 1032.57
1017.30 1016.95 1016.42 1015.80 1015.16 1014.58 1014.11 1013.78 1013.63 1013.63 1013.80 1014.13 1014.59 1015.20 1015.92 1016.75 1017.66 1018.62 1019.58 1020.52 1021.38 1022.15 1022.81 1023.37 1023.83 1024.25 1024.67 1025.11 1025.61 1026.19 1026.84 1027.55 1028.30 1029.04 1029.74 1030.37 1030.91 1031.35 1031.69 1031.93 1032.10 1032.19 1032.24
1018.19 1017.79 1017.21 1016.54 1015.85 1015.20 1014.65 1014.21 1013.91 1013.75 1013.73 1013.85 1014.12 1014.54 1015.12 1015.86 1016.72 1017.69 1018.71 1019.73 1020.69 1021.57 1022.32 1022.94 1023.45 1023.88 1024.28 1024.70 1025.17 1025.71 1026.34 1027.05 1027.79 1028.55 1029.26 1029.91 1030.47 1030.92 1031.25 1031.49 1031.64 1031.73 1031.76
1018.90 1018.48 1017.88 1017.19 1016.47 1015.78 1015.15 1014.62 1014.20 1013.88 1013.67 1013.60 1013.67 1013.91 1014.34 1014.96 1015.77 1016.72 1017.77 1018.85 1019.91 1020.87 1021.71 1022.41 1022.96 1023.42 1023.83 1024.23 1024.67 1025.19 1025.79 1026.47 1027.20 1027.95 1028.67 1029.32 1029.89 1030.34 1030.68 1030.92 1031.07 1031.16 1031.21
1019.45 1019.04 1018.45 1017.75 1017.02 1016.31 1015.65 1015.04 1014.51 1014.05 1013.69 1013.43 1013.32 1013.39 1013.67 1014.17 1014.90 1015.80 1016.85 1017.96 1019.07 1020.10 1021.01 1021.77 1022.38 1022.87 1023.29 1023.68 1024.11 1024.60 1025.18 1025.83 1026.54 1027.26 1027.97 1028.62 1029.18 1029.64 1029.99 1030.26 1030.44 1030.56 1030.65
1019.91 1019.53 1018.96 1018.29 1017.57 1016.85 1016.16 1015.51 1014.89 1014.33 1013.83 1013.43 1013.17 1013.08 1013.21 1013.58 1014.20 1015.03 1016.03 1017.13 1018.24 1019.30 1020.24 1021.04 1021.69 1022.22 1022.66 1023.06 1023.48 1023.96 1024.50 1025.12 1025.80 1026.49 1027.18 1027.81 1028.37 1028.85 1029.23 1029.53 1029.77 1029.96 1030.12
1020.37 1020.02 1019.49 1018.85 1018.16 1017.45 1016.75 1016.06 1015.39 1014.76 1014.16 1013.65 1013.26 1013.03 1013.03 1013.27 1013.76 1014.48 1015.39 1016.41 1017.47 1018.50 1019.44 1020.26 1020.93 1021.48 1021.94 1022.37 1022.79 1023.26 1023.79 1024.38 1025.01 1025.67 1026.33 1026.94 1027.50 1027.99 1028.40 1028.76 1029.07 1029.34 1029.59
1020.90 1020.59 1020.09 1019.49 1018.83 1018.14 1017.44 1016.74 1016.05 1015.36 1014.70 1014.11 1013.62 1013.29 1013.15 1013.26 1013.61 1014.19 1014.96 1015.86 1016.82 1017.78 1018.67 1019.46 1020.13 1020.69 1021.18 1021.62 1022.06 1022.53 1023.04 1023.61 1024.21 1024.83 1025.45 1026.04 1026.58 1027.08 1027.53 1027.94 1028.32 1028.68 1029.02
1021.51 1021.23 1020.78 1020.22 1019.59 1018.92 1018.24 1017.54 1016.83 1016.13 1015.44 1014.80 1014.25 1013.83 1013.59 1013.57 1013.77 1014.19 1014.79 1015.53 1016.34 1017.18 1017.98 1018.71 1019.35 1019.91 1020.41 1020.87 1021.32 1021.79 1022.30 1022.84 1023.41 1023.99 1024.56 1025.12 1025.65 1026.15 1026.62 1027.07 1027.50 1027.93 1028.34
1022.17 1021.92 1021.52 1021.00 1020.40 1019.77 1019.11 1018.43 1017.73 1017.03 1016.34 1015.68 1015.10 1014.63 1014.31 1014.17 1014.23 1014.48 1014.90 1015.45 1016.09 1016.77 1017.44 1018.08 1018.66 1019.19 1019.69 1020.16 1020.62 1021.10 1021.59 1022.11 1022.64 1023.18 1023.70 1024.22 1024.71 1025.19 1025.66 1026.13 1026.59 1027.06 1027.52
1022.81 1022.61 1022.25 1021.78 1021.23 1020.64 1020.01 1019.35 1018.69 1018.01 1017.34 1016.70 1016.12 1015.63 1015.25 1015.02 1014.96 1015.05 1015.29 1015.66 1016.10 1016.60 1017.13 1017.65 1018.15 1018.63 1019.09 1019.55 1020.00 1020.47 1020.95 1021.43 1021.92 1022.41 1022.88 1023.34 1023.79 1024.23 1024.68 1025.13 1025.60 1026.07 1026.55
1023.36 1023.21 1022.91 1022.50 1022.01 1021.47 1020.88 1020.27 1019.65 1019.02 1018.39 1017.79 1017.24 1016.75 1016.36 1016.07 1015.92 1015.88 1015.96 1016.15 1016.41 1016.73 1017.09 1017.47 1017.86 1018.26 1018.67 1019.09 1019.51 1019.95 1020.39 1020.83 1021.27 1021.70 1022.11 1022.51 1022.90 1023.29 1023.69 1024.11 1024.55 1025.01 1025.48
1023.77 1023.69 1023.47 1023.14 1022.72 1022.24 1021.71 1021.15 1020.58 1020.01 1019.45 1018.91 1018.41 1017.96 1017.58 1017.27 1017.06 1016.93 1016.88 1016.91 1017.01 1017.16 1017.36 1017.59 1017.85 1018.15 1018.47 1018.81 1019.17 1019.55 1019.93 1020.32 1020.69 1021.05 1021.40 1021.73 1022.06 1022.40 1022.75 1023.12 1023.53 1023.95 1024.39
1024.04 1024.05 1023.92 1023.68 1023.35 1022.94 1022.48 1021.99 1021.48 1020.98 1020.49 1020.02 1019.59 1019.20 1018.85 1018.56 1018.32 1018.13 1018.00 1017.91 1017.87 1017.87 1017.91 1017.99 1018.11 1018.27 1018.48 1018.72 1018.99 1019.28 1019.58 1019.89 1020.19 1020.48 1020.76 1021.03 1021.31 1021.59 1021.90 1022.24 1022.60 1022.99 1023.41
1024.24 1024.35 1024.33 1024.19 1023.94 1023.62 1023.23 1022.80 1022.36 1021.92 1021.50 1021.11 1020.75 1020.42 1020.13 1019.87 1019.63 1019.42 1019.23 1019.06 1018.91 1018.79 1018.69 1018.62 1018.60 1018.62 1018.69 1018.80 1018.95 1019.13 1019.33 1019.55 1019.77 1019.99 1020.21 1020.43 1020.67 1020.92 1021.19 1021.50 1021.84 1022.22 1022.62
1024.47 1024.67 1024.75 1024.71 1024.55 1024.30 1023.97 1023.61 1023.23 1022.85 1022.49 1022.16 1021.87 1021.61 1021.37 1021.15 1020.94 1020.73 1020.51 1020.28 1020.05 1019.83 1019.61 1019.42 1019.25 1019.13 1019.06 1019.03 1019.05 1019.11 1019.20 1019.31 1019.45 1019.60 1019.77 1019.95 1020.16 1020.39 1020.66 1020.96 1021.30 1021.67 1022.08
1024.82 1025.10 1025.26 1025.29 1025.20 1025.01 1024.74 1024.42 1024.09 1023.76 1023.45 1023.17 1022.93 1022.72 1022.54 1022.35 1022.17 1021.97 1021.74 1021.49 1021.20 1020.91 1020.60 1020.29 1020.01 1019.76 1019.55 1019.38 1019.27 1019.20 1019.18 1019.20 1019.26 1019.35 1019.47 1019.62 1019.81 1020.04 1020.31 1020.62 1020.98 1021.37 1021.80
1025.35 1025.68 1025.88 1025.95 1025.90 1025.75 1025.52 1025.24 1024.93 1024.63 1024.36 1024.12 1023.91 1023.74 1023.59 1023.44 1023.28 1023.09 1022.87 1022.60 1022.29 1021.94 1021.57 1021.19 1020.81 1020.45 1020.13 1019.85 1019.61 1019.43 1019.31 1019.24 1019.22 1019.25 1019.33 1019.46 1019.64 1019.87 1020.15 1020.48 1020.86 1021.28 1021.74
1026.07 1026.39 1026.59 1026.67 1026.63 1026.49 1026.28 1026.02 1025.73 1025.45 1025.19 1024.97 1024.79 1024.64 1024.51 1024.38 1024.23 1024.06 1023.85 1023.58 1023.26 1022.89 1022.49 1022.06 1021.62 1021.19 1020.79 1020.42 1020.09 1019.83 1019.62 1019.47 1019.38 1019.36 1019.40 1019.50 1019.66 1019.89 1020.17 1020.52 1020.91 1021.36 1021.84
1026.90 1027.17 1027.33 1027.37 1027.32 1027.17 1026.96 1026.70 1026.43 1026.17 1025.93 1025.72 1025.55 1025.41 1025.29 1025.17 1025.04 1024.88 1024.67 1024.42 1024.11 1023.74 1023.33 1022.89 1022.43 1021.97 1021.52 1021.10 1020.72 1020.39 1020.11 1019.91 1019.76 1019.69 1019.68 1019.74 1019.88 1020.08 1020.36 1020.70 1021.09 1021.54 1022.03
1027.74 1027.91 1027.99 1027.98 1027.88 1027.72 1027.50 1027.25 1027.00 1026.75 1026.53 1026.34 1026.18 1026.05 1025.94 1025.83 1025.71 1025.56 1025.37 1025.13 1024.84 1024.50 1024.11 1023.68 1023.23 1022.77 1022.32 1021.89 1021.49 1021.13 1020.82 1020.56 1020.37 1020.24 1020.19 1020.20 1020.29 1020.45 1020.68 1020.99 1021.36 1021.79 1022.27
Thickness
5542 5543 5546 5547 5549 5550 5550 5551 5551 5550 5549 5547 5546 5544 5543 5542 5542 5542 5542 5542 5541 5540 5539 5537 5535 5533 5532 5530 5528 5527 5524 5522 5522 5522 5520 5519 5521 5521 5522 5524 5525 5527 5528
5532 5534 5536 5538 5540 5540 5541 5542 5542 5542 5542 5541 5539 5537 5535 5534 5533 5533 5532 5532 5532 5532 5531 5530 5528 5526 5523 5520 5519 5518 5514 5512 5512 5512 5510 5508 5509 5509 5511 5512 5513 5514 5516
5524 5525 5527 5529 5530 5532 5533 5534 5534 5534 5533 5532 5530 5528 5526 5524 5523 5523 5523 5523 5524 5523 5523 5521 5520 5518 5516 5513 5511 5510 5509 5504 5501 5502 5502 5500 5499 5496 5498 5499 5500 5501 5503
5515 5516 5518 5519 5522 5523 5524 5525 5525 5525 5524 5523 5522 5522 5521 5519 5517 5517 5515 5515 5515 5514 5514 5513 5512 5509 5508 5506 5503 5502 5501 5498 5494 5492 5491 5491 5490 5487 5485 5487 5488 5489 5490
5506 5508 5509 5510 5512 5513 5514 5515 5516 5516 5515 5515 5514 5514 5513 5512 5509 5508 5506 5506 5506 5505 5505 5504 5503 5501 5499 5496 5494 5492 5491 5490 5488 5484 5482 5480 5479 5478 5477 5475 5474 5475 5477
5496 5498 5499 5500 5501 5502 5504 5505 5507 5506 5505 5505 5505 5505 5505 5503 5501 5499 5497 5497 5496 5495 5495 5495 5494 5492 5490 5487 5485 5484 5482 5480 5478 5476 5474 5473 5471 5468 5467 5464 5462 5462 5463
5487 5488 5489 5490 5491 5492 5493 5494 5495 5496 5496 5496 5496 5496 5496 5495 5494 5492 5490 5488 5487 5486 5485 5485 5484 5482 5481 5478 5476 5474 5472 5470 5468 5466 5464 5463 5461 5460 5458 5456 5452 5451 5451
5477 5479 5480 5481 5481 5482 5482 5484 5485 5486 5486 5486 5486 5486 5486 5485 5484 5483 5482 5480 5479 5478 5477 5475 5474 5472 5471 5468 5466 5463 5462 5460 5458 5456 5454 5452 5450 5449 5448 5446 5443 5440 5439
5467 5469 5470 5471 5471 5472 5472 5473 5475 5476 5476 5476 5476 5475 5475 5475 5474 5473 5472 5471 5469 5468 5467 5466 5464 5462 5460 5459 5456 5453 5451 5448 5447 5444 5443 5441 5439 5438 5437 5435 5434 5432 5429
5456 5458 5460 5461 5462 5462 5462 5464 5464 5465 5465 5466 5466 5466 5465 5464 5463 5462 5461 5460 5459 5458 5457 5455 5453 5452 5450 5448 5446 5443 5440 5437 5434 5432 5431 5429 5428 5426 5424 5423 5421 5420 5419
5442 5445 5447 5449 5450 5451 5452 5452 5453 5454 5454 5454 5454 5454 5453 5452 5451 5450 5449 5449 5448 5446 5446 5444 5443 5441 5439 5437 5435 5432 5429 5426 5423 5421 5419 5418 5416 5414 5412 5410 5408 5407 5406
5431 5432 5435 5437 5438 5439 5440 5441 5442 5443 5443 5443 5443 5443 5442 5441 5440 5439 5437 5436 5436 5434 5434 5433 5431 5430 5428 5426 5424 5421 5418 5415 5412 5410 5408 5406 5404 5402 5399 5397 5396 5395 5394
5420 5421 5422 5424 5426 5426 5427 5429 5431 5431 5431 5431 5431 5430 5430 5429 5429 5428 5426 5425 5423 5422 5421 5420 5419 5417 5416 5414 5412 5410 5407 5405 5402 5400 5397 5395 5393 5390 5388 5386 5384 5383 5382
5408 5410 5411 5412 5413 5414 5416 5417 5418 5419 5419 5419 5419 5418 5418 5418 5417 5416 5414 5413 5411 5410 5409 5407 5406 5405 5403 5401 5399 5397 5395 5393 5390 5388 5386 5383 5381 5379 5377 5375 5373 5372 5370
5398 5400 5400 5401 5402 5403 5405 5406 5406 5407 5408 5407 5407 5406 5406 5405 5403 5402 5401 5400 5398 5397 5396 5394 5393 5391 5390 5388 5386 5385 5383 5380 5377 5375 5373 5371 5369 5368 5366 5364 5362 5361 5359
5388 5389 5390 5390 5391 5392 5393 5394 5394 5394 5395 5395 5394 5393 5392 5391 5390 5389 5388 5387 5385 5383 5382 5381 5379 5378 5376 5375 5374 5372 5370 5367 5365 5363 5360 5358 5357 5355 5354 5354 5353 5351 5349
5377 5378 5378 5379 5379 5380 5382 5382 5382 5382 5382 5381 5381 5380 5379 5378 5377 5375 5374 5373 5371 5370 5368 5367 5366 5364 5363 5362 5361 5360 5357 5354 5352 5350 5348 5346 5344 5343 5342 5341 5341 5340 5339
5366 5366 5367 5367 5367 5369 5369 5369 5369 5369 5368 5368 5367 5367 5366 5365 5363 5362 5361 5359 5358 5356 5355 5353 5352 5351 5350 5349 5348 5347 5344 5341 5339 5337 5335 5333 5332 5330 5330 5329 5328 5327 5327
5355 5355 5355 5355 5355 5356 5357 5357 5356 5355 5355 5354 5354 5353 5352 5351 5349 5348 5347 5345 5344 5342 5341 5339 5338 5336 5335 5335 5334 5333 5330 5328 5325 5323 5322 5321 5320 5319 5319 5317 5316 5315 5314
5343 5342 5342 5343 5344 5344 5345 5344 5343 5343 5342 5341 5340 5339 5338 5337 5336 5335 5333 5332 5330 5328 5327 5325 5323 5322 5321 5320 5320 5319 5317 5314 5312 5310 5309 5309 5308 5307 5307 5306 5304 5303 5303
5331 5330 5330 5331 5331 5331 5331 5330 5329 5329 5328 5327 5326 5326 5325 5324 5323 5321 5320 5317 5316 5314 5311 5310 5309 5308 5307 5306 5306 5305 5303 5301 5299 5297 5296 5296 5296 5296 5296 5295 5293 5293 5292
5319 5318 5318 5317 5317 5317 5318 5317 5315 5315 5314 5314 5313 5312 5311 5310 5309 5307 5305 5303 5300 5298 5296 5295 5293 5292 5292 5291 5291 5291 5290 5288 5286 5285 5284 5283 5283 5284 5283 5282 5282 5281 5279
5306 5306 5305 5304 5303 5303 5303 5303 5302 5301 5300 5300 5299 5298 5296 5295 5294 5292 5291 5288 5285 5283 5281 5280 5279 5278 5278 5277 5277 5277 5277 5275 5273 5272 5272 5271 5271 5270 5269 5269 5268 5267 5265
5294 5293 5292 5291 5290 5289 5289 5289 5288 5288 5287 5286 5284 5283 5282 5280 5279 5277 5276 5274 5272 5270 5268 5267 5265 5264 5263 5263 5262 5262 5262 5262 5260 5258 5258 5257 5257 5256 5255 5254 5253 5252 5251
5284 5282 5280 5278 5277 5277 5277 5276 5275 5275 5274 5272 5270 5269 5267 5265 5264 5262 5261 5260 5259 5258 5257 5255 5253 5252 5251 5251 5251 5250 5249 5248 5247 5245 5243 5243 5242 5241 5240 5239 5238 5237 5236
5271 5270 5268 5267 5265 5264 5263 5263 5262 5262 5260 5259 5257 5255 5253 5251 5250 5248 5247 5246 5246 5246 5245 5244 5242 5241 5241 5240 5240 5240 5239 5238 5236 5234 5232 5230 5229 5227 5226 5225 5224 5223 5222